Location: Cactus School
(34.5700°N, 118.0931°W)
Time: 12:20:45
(UTC-08:00)

Vanguard 3 - All Passes

Search period start: 18 February 2018 00:00
Search period end: 28 February 2018 00:00
Orbit: 508 x 3264 km, 33.3° (Epoch: 17 February)

Date Brightness Start Highest point End Pass type
(mag) Time Alt. Az. Time Alt. Az. Time Alt. Az.
18 Feb - 14:28:54 10° SSW 14:33:10 24° SSE 14:36:26 10° ESE daylight
18 Feb - 16:40:29 10° WSW 16:44:23 64° S 16:48:05 10° E daylight
18 Feb - 18:51:54 10° W 18:55:35 65° S 19:00:29 10° ESE visible
18 Feb - 21:03:01 10° W 21:07:10 29° SSW 21:13:20 10° SE visible
18 Feb - 23:19:07 10° SSW 23:19:52 10° SSW 23:20:39 10° SSW night (unlit)
19 Feb - 13:15:29 10° SSW 13:19:29 16° SSE 13:22:36 10° ESE daylight
19 Feb - 15:26:33 10° WSW 15:31:08 45° SSE 15:34:42 10° E daylight
19 Feb - 17:38:36 10° W 17:42:18 75° S 17:46:19 10° E daylight
19 Feb - 19:49:49 10° W 19:53:33 39° SSW 19:58:53 10° SE visible
19 Feb - 22:02:19 10° WSW 22:05:36 15° SSW 22:09:47 10° S night (unlit)
20 Feb - 12:03:14 10° S 12:05:28 11° SSE 12:07:25 10° SE daylight
20 Feb - 14:12:21 10° SW 14:17:43 32° SSE 14:21:29 10° E daylight
20 Feb - 16:24:51 10° WSW 16:29:03 71° S 16:32:42 10° E daylight
20 Feb - 18:36:37 10° W 18:40:13 55° SSW 18:44:38 10° ESE visible
20 Feb - 20:48:14 10° WSW 20:51:42 21° SSW 20:56:24 10° SSE visible
21 Feb - 12:58:08 10° SSW 13:04:01 23° SSE 13:08:05 10° ESE daylight
21 Feb - 15:10:33 10° WSW 15:15:45 55° SSE 15:19:29 10° E daylight
21 Feb - 17:23:09 10° W 17:26:59 72° S 17:30:46 10° E daylight
21 Feb - 19:34:44 10° W 19:38:09 30° SSW 19:42:37 10° SE visible
22 Feb - 11:44:19 10° SSW 11:49:54 17° SSE 11:54:04 10° ESE daylight
22 Feb - 13:55:51 10° SW 14:02:17 41° SSE 14:06:27 10° E daylight
22 Feb - 16:09:08 10° W 16:13:43 75° S 16:17:22 10° E daylight
22 Feb - 18:21:20 10° W 18:24:51 46° SSW 18:28:50 10° ESE visible
22 Feb - 20:33:45 10° WSW 20:36:14 15° SSW 20:39:15 10° SSE visible
23 Feb - 10:32:03 10° S 10:35:23 12° SSE 10:38:16 10° SE daylight
23 Feb - 12:40:58 10° SW 12:48:29 31° SSE 12:53:17 10° E daylight
23 Feb - 14:54:29 10° WSW 15:00:21 65° S 15:04:18 10° E daylight
23 Feb - 17:07:37 10° W 17:11:39 67° S 17:15:18 10° ESE daylight
23 Feb - 19:19:43 10° WSW 19:22:43 23° SSW 19:26:19 10° SSE visible
24 Feb - 11:26:18 10° SSW 11:34:17 24° SSE 11:39:40 10° ESE daylight
24 Feb - 13:39:18 10° WSW 13:46:47 51° SSE 13:51:21 10° E daylight
24 Feb - 15:53:20 10° W 15:58:21 77° S 16:02:05 10° E daylight
24 Feb - 18:05:59 10° W 18:09:28 37° SSW 18:13:05 10° SE visible
25 Feb - 10:12:24 10° S 10:19:39 17° SSE 10:25:05 10° ESE daylight
25 Feb - 12:23:52 10° SW 12:32:54 40° SSE 12:38:18 10° E daylight
25 Feb - 14:38:19 10° WSW 14:44:55 72° S 14:49:07 10° E daylight
25 Feb - 16:52:00 10° W 16:56:17 60° SSW 16:59:53 10° ESE daylight
25 Feb - 19:04:49 10° WSW 19:07:15 17° SSW 19:09:56 10° SSE visible
26 Feb - 09:01:08 10° SSE 09:04:35 11° SSE 09:07:40 10° SE daylight
26 Feb - 11:08:31 10° SSW 11:18:35 31° SSE 11:24:53 10° E daylight
26 Feb - 13:22:42 10° WSW 13:31:15 61° SSE 13:36:13 10° E daylight
26 Feb - 15:37:25 10° W 15:42:59 77° S 15:46:50 10° E daylight
26 Feb - 17:50:35 10° W 17:54:02 30° SSW 17:57:21 10° SE daylight
27 Feb - 09:53:46 10° SSW 10:03:48 23° SSE 10:10:44 10° ESE daylight
27 Feb - 12:06:46 10° SW 12:17:14 49° SSE 12:23:13 10° E daylight
27 Feb - 14:22:04 10° W 14:29:27 78° S 14:33:56 10° E daylight
27 Feb - 16:36:16 10° W 16:40:54 54° SSW 16:44:29 10° ESE daylight
27 Feb - 18:50:14 10° SW 18:51:43 12° SSW 18:53:15 10° S visible
